Weather in Nes'

Russia / Nenets Autonomous Okrug     66°36′03″N   44°40′44″E
temp.,
°C
wind,
m/s
gust,
m/s
humid.,
%
clouds,
%
prec.,
mm/h
press.,
hPa
HPBL,
m
12 august, fri
fri1200:00+13wsw814958 0.2 1004303
03:00+12wsw711953 0.3 1005229
06:00+12w710895 0.0 1005273
09:00+12w71084100 0.0 1006389
12:00+15wnw796635 0.0 1008821
15:00+12wnw71080100 0.6 1009699
18:00+13w577397 0.1 1010592
21:00+10w57845 0.3 101182
13 august, sat
sat1300:00+11w8148210 0.3 1011327
03:00+10wnw813835 0.3 1012307
06:00+10wnw101476100 0.0 1012796
09:00+10wnw101479100 0.0 1014757
12:00+11wnw91277100 0.0 1015973
15:00+13wnw10156486 0.0 10171355
18:00+11nw9137218 0.0 1018972
21:00+8wnw598631 0.0 1019178
14 august, sun
sun1400:00+8nw58915 0.0 1020126
03:00+8wnw4492100 0.0 102048
06:00+10sw578781 0.0 1021223
09:00+13w676718 0.3 1021647
12:00+15wsw6757100 0.1 10201061
15:00+15sw665492 0.1 1020965
18:00+13sw677251 0.0 1019444
21:00+11ssw5784100 0.0 1018111
15 august, mon
mon1500:00+10sw698998 0.0 1018125
03:00+10wsw5992100 0.0 1018147
06:00+12nw588479 0.0 1019288
09:00+14nnw676196 0.0 1021646
12:00+14nw78575 0.0 1022805
15:00+13nw79605 0.0 1024758
18:00+12nw58655 0.0 1024460
21:00+8nw33835 0.0 102520
16 august, tue
tue1600:00+6w11825 0.0 102610
03:00+7ssw44775 0.0 102623
06:00+10ssw58735 0.0 1026178
09:00+16ssw79525 0.0 1025484
12:00+20sw894831 0.0 1024748
15:00+22sw89515 0.0 1022999
18:00+19w46715 0.0 1022169
21:00+17sw457938 0.0 102237